When you browse on this site, cookies collect data to enhance your experience and personalize the content and advertising you see.
Visit our Privacy Policy to learn more. By continuing to use the site, you agree to this use of cookies and data.
  • In Hungary
  • List of Countries
  • For 7 days
  • Water Temperature
  • Satellite Maps
  • Weather Map
  • News
  • Weather Widgets
  • user-avatar
    Login

    Hourly Weather Ozd

    Today, 26 June, Wednesday

    Time Temperature Precipitation Wind Pressure Humidity
    00:00 +19°C° 0 mm 0 mps 743 mmHg 85%
    01:00 +19°C° 0 mm 0 mps 743 mmHg 87%
    02:00 +19°C° 0 mm 0 mps 743 mmHg 87%
    03:00 +19°C° 0 mm 0 mps 743 mmHg 88%
    04:00 +20°C° 0 mm 1 mps 743 mmHg 88%
    05:00 +21°C° 0 mm 0 mps 743 mmHg 82%
    06:00 +23°C° 0 mm 0 mps 743 mmHg 76%
    07:00 +25°C° 0 mm 0 mps 744 mmHg 69%
    08:00 +27°C° 0 mm 0 mps 744 mmHg 63%
    09:00 +30°C° 0 mm 1 mps 744 mmHg 57%
    10:00 +32°C° 0 mm 1 mps 744 mmHg 51%
    11:00 +32°C° 0 mm 2 mps 744 mmHg 49%
    12:00 +34°C° 0 mm 2 mps 743 mmHg 48%
    13:00 +34°C° 0 mm 2 mps 743 mmHg 46%
    14:00 +34°C° 0 mm 2 mps 743 mmHg 48%
    15:00 +34°C° 0 mm 3 mps 742 mmHg 51%
    16:00 +33°C° 0 mm 3 mps 742 mmHg 53%
    17:00 +31°C° 0 mm 2 mps 742 mmHg 61%
    18:00 +29°C° 0 mm 2 mps 741 mmHg 69%
    19:00 +27°C° 0 mm 2 mps 741 mmHg 77%
    20:00 +26°C° 0 mm 2 mps 741 mmHg 80%
    21:00 +25°C° 0 mm 2 mps 741 mmHg 83%
    22:00 +24°C° 0 mm 2 mps 741 mmHg 87%
    23:00 +24°C° 0 mm 2 mps 741 mmHg 87%

    Tomorrow, 27 June, Thursday

    Time Temperature Precipitation Wind Pressure Humidity
    00:00 +23°C° 0 mm 2 mps 741 mmHg 88%
    01:00 +23°C° 0 mm 2 mps 740 mmHg 89%
    02:00 +23°C° 0 mm 2 mps 740 mmHg 90%
    03:00 +21°C° 0 mm 2 mps 739 mmHg 91%
    04:00 +21°C° 0 mm 2 mps 739 mmHg 91%
    05:00 +24°C° 0 mm 2 mps 739 mmHg 85%
    06:00 +25°C° 0 mm 2 mps 739 mmHg 79%
    07:00 +27°C° 0 mm 2 mps 739 mmHg 73%
    08:00 +29°C° 0 mm 2 mps 739 mmHg 67%
    09:00 +31°C° 0 mm 3 mps 739 mmHg 61%
    10:00 +34°C° 0 mm 3 mps 738 mmHg 55%
    11:00 +34°C° 0.2 mm 4 mps 738 mmHg 51%
    12:00 +35°C° 0.2 mm 5 mps 738 mmHg 48%
    13:00 +35°C° 0.2 mm 6 mps 737 mmHg 45%
    14:00 +34°C° 0.1 mm 5 mps 737 mmHg 46%
    15:00 +34°C° 0.1 mm 5 mps 737 mmHg 48%
    16:00 +33°C° 0.1 mm 4 mps 736 mmHg 50%
    17:00 +29°C° 0 mm 4 mps 736 mmHg 53%
    18:00 +27°C° 0 mm 3 mps 736 mmHg 55%
    19:00 +24°C° 0 mm 2 mps 736 mmHg 58%
    20:00 +21°C° 0 mm 2 mps 736 mmHg 59%
    21:00 +19°C° 0 mm 2 mps 737 mmHg 60%
    22:00 +18°C° 0 mm 1 mps 737 mmHg 61%
    23:00 +16°C° 0 mm 1 mps 737 mmHg 65%

    Day after tomorrow, 28 June, Friday

    Time Temperature Precipitation Wind Pressure Humidity
    00:00 +15°C° 0 mm 1 mps 737 mmHg 69%
    01:00 +14°C° 0 mm 1 mps 738 mmHg 73%
    02:00 +14°C° 0 mm 1 mps 738 mmHg 75%
    03:00 +14°C° 0 mm 1 mps 738 mmHg 77%
    04:00 +13°C° 0 mm 1 mps 738 mmHg 79%
    05:00 +15°C° 0 mm 1 mps 738 mmHg 73%
    06:00 +18°C° 0 mm 1 mps 738 mmHg 67%
    07:00 +20°C° 0 mm 1 mps 738 mmHg 61%
    08:00 +22°C° 0 mm 1 mps 739 mmHg 56%
    09:00 +24°C° 0 mm 1 mps 739 mmHg 52%
    10:00 +25°C° 0 mm 1 mps 739 mmHg 47%
    11:00 +25°C° 0 mm 1 mps 739 mmHg 47%
    12:00 +25°C° 0 mm 1 mps 739 mmHg 48%
    13:00 +25°C° 0 mm 1 mps 739 mmHg 48%
    14:00 +25°C° 0 mm 1 mps 739 mmHg 50%
    15:00 +25°C° 0 mm 1 mps 739 mmHg 51%
    16:00 +25°C° 0 mm 1 mps 739 mmHg 53%
    17:00 +23°C° 0 mm 1 mps 739 mmHg 60%
    18:00 +22°C° 0 mm 1 mps 738 mmHg 67%
    19:00 +20°C° 0 mm 1 mps 738 mmHg 73%
    20:00 +19°C° 0 mm 1 mps 739 mmHg 75%
    21:00 +18°C° 0 mm 1 mps 739 mmHg 77%
    22:00 +15°C° 0 mm 0 mps 739 mmHg 79%
    23:00 +14°C° 0 mm 0 mps 739 mmHg 80%

    29 June, Saturday

    Time Temperature Precipitation Wind Pressure Humidity
    00:00 +14°C° 0 mm 0 mps 739 mmHg 81%
    01:00 +14°C° 0 mm 0 mps 739 mmHg 81%
    02:00 +13°C° 0 mm 0 mps 739 mmHg 83%
    03:00 +14°C° 0 mm 1 mps 739 mmHg 84%
    04:00 +14°C° 0 mm 1 mps 739 mmHg 85%
    05:00 +16°C° 0 mm 1 mps 740 mmHg 74%
    06:00 +17°C° 0 mm 2 mps 740 mmHg 63%
    07:00 +19°C° 0 mm 2 mps 740 mmHg 52%
    08:00 +20°C° 0 mm 2 mps 740 mmHg 49%
    09:00 +23°C° 0 mm 2 mps 740 mmHg 46%
    10:00 +24°C° 0 mm 2 mps 741 mmHg 42%
    11:00 +25°C° 0 mm 2 mps 741 mmHg 42%
    12:00 +25°C° 0 mm 2 mps 740 mmHg 41%
    13:00 +26°C° 0 mm 2 mps 740 mmHg 40%
    14:00 +26°C° 0 mm 2 mps 740 mmHg 42%
    15:00 +26°C° 0 mm 1 mps 740 mmHg 43%
    16:00 +26°C° 0 mm 1 mps 740 mmHg 44%
    17:00 +24°C° 0 mm 2 mps 740 mmHg 51%
    18:00 +21°C° 0 mm 2 mps 740 mmHg 60%
    19:00 +20°C° 0 mm 1 mps 740 mmHg 69%
    20:00 +19°C° 0 mm 1 mps 740 mmHg 72%
    21:00 +18°C° 0 mm 1 mps 740 mmHg 74%
    22:00 +16°C° 0 mm 1 mps 741 mmHg 77%
    23:00 +15°C° 0 mm 1 mps 741 mmHg 79%

    30 June, Sunday

    Time Temperature Precipitation Wind Pressure Humidity
    00:00 +14°C° 0 mm 0 mps 741 mmHg 80%
    01:00 +13°C° 0 mm 0 mps 741 mmHg 82%
    02:00 +13°C° 0 mm 0 mps 741 mmHg 83%
    03:00 +14°C° 0 mm 1 mps 741 mmHg 84%
    04:00 +13°C° 0 mm 1 mps 740 mmHg 85%
    05:00 +16°C° 0 mm 1 mps 741 mmHg 77%
    06:00 +19°C° 0 mm 1 mps 741 mmHg 69%
    07:00 +20°C° 0 mm 2 mps 741 mmHg 62%
    08:00 +21°C° 0 mm 2 mps 741 mmHg 58%
    09:00 +24°C° 0 mm 3 mps 741 mmHg 54%
    10:00 +25°C° 0 mm 3 mps 742 mmHg 50%
    11:00 +26°C° 0 mm 3 mps 741 mmHg 50%
    12:00 +27°C° 0 mm 3 mps 741 mmHg 49%
    13:00 +27°C° 0 mm 4 mps 741 mmHg 49%
    14:00 +27°C° 0 mm 3 mps 741 mmHg 50%
    15:00 +27°C° 0 mm 3 mps 740 mmHg 51%
    16:00 +27°C° 0 mm 3 mps 740 mmHg 52%
    17:00 +26°C° 0 mm 3 mps 740 mmHg 60%
    18:00 +24°C° 0 mm 2 mps 740 mmHg 67%
    19:00 +23°C° 0 mm 2 mps 740 mmHg 75%
    20:00 +20°C° 0 mm 2 mps 740 mmHg 77%
    21:00 +20°C° 0 mm 1 mps 740 mmHg 80%
    22:00 +19°C° 0 mm 1 mps 740 mmHg 82%
    23:00 +18°C° 0 mm 1 mps 740 mmHg 83%

    1 July, Monday

    Time Temperature Precipitation Wind Pressure Humidity
    00:00 +18°C° 0 mm 1 mps 740 mmHg 85%
    01:00 +16°C° 0 mm 1 mps 739 mmHg 86%
    02:00 +16°C° 0 mm 1 mps 739 mmHg 86%
    03:00 +16°C° 0 mm 1 mps 739 mmHg 86%
    04:00 +16°C° 0 mm 1 mps 739 mmHg 86%
    05:00 +19°C° 0 mm 1 mps 739 mmHg 79%
    06:00 +21°C° 0 mm 1 mps 739 mmHg 72%
    07:00 +23°C° 0 mm 2 mps 739 mmHg 65%
    08:00 +24°C° 0 mm 2 mps 739 mmHg 59%
    09:00 +26°C° 0 mm 3 mps 739 mmHg 54%
    10:00 +27°C° 0 mm 3 mps 739 mmHg 49%
    11:00 +28°C° 0 mm 3 mps 739 mmHg 48%
    12:00 +29°C° 0 mm 3 mps 739 mmHg 47%
    13:00 +30°C° 0 mm 4 mps 738 mmHg 47%
    14:00 +30°C° 0 mm 4 mps 738 mmHg 48%
    15:00 +29°C° 0 mm 4 mps 737 mmHg 50%
    16:00 +29°C° 0 mm 3 mps 737 mmHg 51%
    17:00 +28°C° 0 mm 3 mps 737 mmHg 59%
    18:00 +26°C° 0 mm 2 mps 736 mmHg 66%
    19:00 +24°C° 0 mm 1 mps 736 mmHg 74%
    20:00 +23°C° 0 mm 1 mps 736 mmHg 77%
    21:00 +22°C° 0 mm 1 mps 736 mmHg 79%
    22:00 +21°C° 0 mm 1 mps 736 mmHg 82%
    23:00 +21°C° 0.2 mm 1 mps 736 mmHg 84%
    Show more